Weather History for KAIK - November, 2012

Change the Weather History Date:

Sunday, November 4, 2012

  Actual Average Record
Temperature  
Mean Temperature 66 °F -  
Max Temperature 80 °F 72 °F 80 °F (2012)
Min Temperature 53 °F 46 °F 35 °F (2014)
Cooling Degree Days 2    
Growing Degree Days 16 (Base 50)    
Moisture  
Dew Point 54 °F    
Average Humidity 70    
Maximum Humidity 100    
Minimum Humidity 39    
Precipitation  
Precipitation 0.00 in - - ()
Sea Level Pressure  
Sea Level Pressure 29.99 in    
Wind  
Wind Speed 7 mph (WSW)    
Max Wind Speed 21 mph    
Max Gust Speed 29 mph    
Visibility 10 miles    
Events      
Averages and records for this station are not official NWS values.
T = Trace of Precipitation, MM = Missing Value Source: NWS Daily Summary

Daily Weather History Graph

Daily Weather History Graph

Search for Another Location

Airport or City:

Trip Planner

Search our weather history database for the weather conditions in past years. The results will help you decide how hot, cold, wet, or windy it might be!

Date:

Astronomy

Nov. 04, 2012 Rise Set
Actual Time 6:48 AM EST 5:31 PM EST
Civil Twilight 6:22 AM EST 5:57 PM EST
Nautical Twilight 5:53 AM EST 6:26 PM EST
Astronomical Twilight 5:24 AM EST 6:55 PM EST
Moon 10:10 PM EST (11/4) 11:28 AM EST (11/4)
Length of Visible Light 11h 34m
Length of Day
10h 42m
Waning Gibbous, 72% of the Moon is Illuminated
Nov 4
Waning Gibbous
Nov 6
Last Quarter
Nov 13
New
Nov 20
First Quarter
Nov 28
Full

Hourly Weather History & Observations

Time (EST) Temp. Heat Index Dew Point Humidity Pressure Visibility Wind Dir Wind Speed Gust Speed Precip Events Conditions
12:15 AM 57.2 °F - 50.0 °F 77% 30.04 in 10.0 mi South 9.2 mph - N/A   Clear
12:35 AM 59.0 °F - 50.0 °F 72% 30.04 in 10.0 mi South 6.9 mph - N/A   Clear
12:55 AM 55.4 °F - 50.0 °F 82% 30.04 in 10.0 mi South 5.8 mph - N/A   Clear
1:15 AM 59.0 °F - 51.8 °F 77% 30.04 in 10.0 mi SSW 4.6 mph - N/A   Clear
1:35 AM 59.0 °F - 51.8 °F 77% 30.04 in 10.0 mi SSW 4.6 mph - N/A   Clear
1:55 AM 59.0 °F - 51.8 °F 77% 30.04 in 10.0 mi SSW 5.8 mph - N/A   Clear
1:15 AM 60.8 °F - 53.6 °F 77% 30.03 in 10.0 mi SW 6.9 mph - N/A   Clear
1:35 AM 60.8 °F - 53.6 °F 77% 30.03 in 10.0 mi SSW 6.9 mph - N/A   Clear
1:55 AM 59.0 °F - 51.8 °F 77% 30.03 in 10.0 mi SW 5.8 mph - N/A   Clear
2:15 AM 59.0 °F - 53.6 °F 82% 30.03 in 10.0 mi SW 5.8 mph - N/A   Clear
2:35 AM 59.0 °F - 53.6 °F 82% 30.02 in 10.0 mi SW 6.9 mph - N/A   Clear
2:55 AM 59.0 °F - 51.8 °F 77% 30.02 in 10.0 mi SW 4.6 mph - N/A   Clear
3:15 AM 57.2 °F - 51.8 °F 82% 30.02 in 10.0 mi Calm Calm - N/A   Clear
3:35 AM 55.4 °F - 51.8 °F 88% 30.01 in 10.0 mi Calm Calm - N/A   Clear
3:55 AM 57.2 °F - 51.8 °F 82% 30.00 in 10.0 mi SSW 3.5 mph - N/A   Clear
4:15 AM 57.2 °F - 51.8 °F 82% 30.00 in 10.0 mi Calm Calm - N/A   Clear
4:35 AM 53.6 °F - 51.8 °F 94% 30.01 in 10.0 mi WSW 3.5 mph - N/A   Clear
4:55 AM 55.4 °F - 51.8 °F 88% 30.02 in 10.0 mi Calm Calm - N/A   Clear
5:15 AM 53.6 °F - 51.8 °F 94% 30.01 in 10.0 mi SSW 3.5 mph - N/A   Clear
5:35 AM 55.4 °F - 51.8 °F 88% 30.01 in 10.0 mi Calm Calm - N/A   Clear
5:55 AM 55.4 °F - 53.6 °F 94% 30.00 in 10.0 mi SW 4.6 mph - N/A   Clear
6:15 AM 55.4 °F - 51.8 °F 88% 30.01 in 10.0 mi Calm Calm - N/A   Clear
6:35 AM 53.6 °F - 51.8 °F 94% 30.01 in 10.0 mi WSW 4.6 mph - N/A   Clear
6:55 AM 53.6 °F - 53.6 °F 100% 30.02 in 10.0 mi WSW 4.6 mph - N/A   Clear
7:15 AM 53.6 °F - 53.6 °F 100% 30.03 in 10.0 mi West 3.5 mph - N/A   Clear
7:35 AM 55.4 °F - 55.4 °F 100% 30.03 in 7.0 mi Calm Calm - N/A   Clear
7:55 AM 59.0 °F - 55.4 °F 88% 30.03 in 10.0 mi WSW 5.8 mph - N/A   Clear
8:15 AM 60.8 °F - 55.4 °F 82% 30.03 in 10.0 mi WSW 4.6 mph - N/A   Clear
8:35 AM 64.4 °F - 57.2 °F 77% 30.03 in 10.0 mi WSW 4.6 mph - N/A   Clear
8:55 AM 68.0 °F - 57.2 °F 68% 30.03 in 10.0 mi West 6.9 mph - N/A   Clear
9:15 AM 69.8 °F - 57.2 °F 64% 30.03 in 10.0 mi West 9.2 mph - N/A   Clear
9:35 AM 69.8 °F - 55.4 °F 60% 30.03 in 10.0 mi West 9.2 mph - N/A   Clear
9:55 AM 73.4 °F - 55.4 °F 53% 30.02 in 10.0 mi West 13.8 mph - N/A   Clear
10:15 AM 75.2 °F - 57.2 °F 53% 30.02 in 10.0 mi WSW 13.8 mph - N/A   Clear
10:35 AM 77.0 °F - 57.2 °F 50% 30.01 in 10.0 mi West 12.7 mph 17.3 mph N/A   Clear
10:55 AM 77.0 °F - 57.2 °F 50% 30.01 in 10.0 mi West 12.7 mph 18.4 mph N/A   Clear
11:15 AM 77.0 °F - 57.2 °F 50% 30.01 in 10.0 mi WSW 16.1 mph 21.9 mph N/A   Clear
11:35 AM 78.8 °F - 57.2 °F 47% 30.00 in 10.0 mi WSW 17.3 mph 23.0 mph N/A   Clear
11:55 AM 77.0 °F - 57.2 °F 50% 29.99 in 10.0 mi WSW 12.7 mph 18.4 mph N/A   Clear
12:15 PM 77.0 °F - 59.0 °F 54% 29.98 in 10.0 mi WSW 16.1 mph - N/A   Clear
12:35 PM 78.8 °F - 57.2 °F 47% 29.97 in 10.0 mi West 15.0 mph 21.9 mph N/A   Clear
12:55 PM 80.6 °F 80.5 °F 55.4 °F 42% 29.97 in 10.0 mi West 18.4 mph 26.5 mph N/A   Clear
1:15 PM 80.6 °F 80.3 °F 53.6 °F 39% 29.96 in 10.0 mi West 19.6 mph 28.8 mph N/A   Clear
1:35 PM 80.6 °F 80.3 °F 53.6 °F 39% 29.95 in 10.0 mi West 12.7 mph 25.3 mph N/A   Clear
1:55 PM 80.6 °F 80.5 °F 55.4 °F 42% 29.95 in 10.0 mi West 15.0 mph 20.7 mph N/A   Scattered Clouds
2:15 PM 78.8 °F - 53.6 °F 42% 29.94 in 10.0 mi West 15.0 mph - N/A   Mostly Cloudy
2:35 PM 78.8 °F - 53.6 °F 42% 29.94 in 10.0 mi West 8.1 mph - N/A   Mostly Cloudy
2:55 PM 78.8 °F - 53.6 °F 42% 29.94 in 10.0 mi West 20.7 mph 26.5 mph N/A   Scattered Clouds
3:15 PM 78.8 °F - 53.6 °F 42% 29.94 in 10.0 mi WNW 12.7 mph 24.2 mph N/A   Clear
3:35 PM 77.0 °F - 53.6 °F 44% 29.94 in 10.0 mi West 11.5 mph 19.6 mph N/A   Scattered Clouds
3:55 PM 77.0 °F - 53.6 °F 44% 29.94 in 10.0 mi West 8.1 mph 16.1 mph N/A   Clear
4:15 PM 77.0 °F - 53.6 °F 44% 29.94 in 10.0 mi WNW 10.4 mph - N/A   Clear
4:35 PM 75.2 °F - 53.6 °F 47% 29.93 in 10.0 mi West 9.2 mph - N/A   Clear
4:55 PM 73.4 °F - 53.6 °F 50% 29.94 in 10.0 mi WNW 8.1 mph - N/A   Clear
5:15 PM 73.4 °F - 53.6 °F 50% 29.95 in 10.0 mi West 6.9 mph - N/A   Clear
5:35 PM 69.8 °F - 53.6 °F 56% 29.96 in 10.0 mi NW 10.4 mph 21.9 mph N/A   Clear
5:55 PM 68.0 °F - 53.6 °F 60% 29.95 in 10.0 mi WNW 4.6 mph - N/A   Scattered Clouds
6:15 PM 66.2 °F - 55.4 °F 68% 29.96 in 10.0 mi WNW 3.5 mph - N/A   Scattered Clouds
6:35 PM 64.4 °F - 57.2 °F 77% 29.97 in 10.0 mi WNW 3.5 mph - N/A   Mostly Cloudy
6:55 PM 64.4 °F - 57.2 °F 77% 29.97 in 10.0 mi WNW 3.5 mph - N/A   Overcast
7:15 PM 64.4 °F - 57.2 °F 77% 29.97 in 10.0 mi Calm Calm - N/A   Mostly Cloudy
7:35 PM 62.6 °F - 57.2 °F 82% 29.98 in 10.0 mi West 3.5 mph - N/A   Mostly Cloudy
7:55 PM 62.6 °F - 57.2 °F 82% 29.98 in 10.0 mi WNW 3.5 mph - N/A   Scattered Clouds
8:15 PM 62.6 °F - 59.0 °F 88% 29.98 in 10.0 mi WNW 3.5 mph - N/A   Mostly Cloudy
8:35 PM 62.6 °F - 57.2 °F 82% 29.98 in 10.0 mi Calm Calm - N/A   Overcast
8:55 PM 62.6 °F - 57.2 °F 82% 29.99 in 10.0 mi Calm Calm - N/A   Scattered Clouds
9:15 PM 62.6 °F - 57.2 °F 82% 29.99 in 10.0 mi NW 3.5 mph - N/A   Clear
9:35 PM 62.6 °F - 57.2 °F 82% 29.99 in 10.0 mi Calm Calm - N/A   Clear
9:55 PM 60.8 °F - 57.2 °F 88% 29.99 in 10.0 mi Calm Calm - N/A   Clear
10:15 PM 59.0 °F - 55.4 °F 88% 29.98 in 10.0 mi Calm Calm - N/A   Clear
10:35 PM 59.0 °F - 55.4 °F 88% 29.98 in 10.0 mi Calm Calm - N/A   Clear
10:55 PM 59.0 °F - 55.4 °F 88% 29.98 in 10.0 mi Calm Calm - N/A   Clear